Hourly Data Report for October 09, 2014

All times are specified in Local Standard Time (LST). Add 1 hour to adjust for Daylight Saving Time where and when it is observed.

KAMLOOPS A
BRITISH COLUMBIA

50°42'09.000" N
120°26'55.000" W
345.30 m
1163781
71887
YKA

Download Data

Hourly Data (October 2014)
Hourly Data Report for October 9, 2014
Temp Definition
°C
Dew Point Temp Definition
°C
Rel Hum Definition
%
Wind Dir Definition
10's deg

Wind Spd Definition
km/h
Visibility Definition
km
Stn Press Definition
kPa
Hmdx Definition


Wind Chill Definition


Weather Definition


TIME
00:00 Legend Double Dagger 10.7 7.2 79 13 4 64.4 97.69     LegendNANA
01:00 Legend Double Dagger 9.6 5.8 77 36 2 64.4 97.73     Mainly Clear
02:00 Legend Double Dagger 8.6 5.5 81 6 6 64.4 97.74     LegendNANA
03:00 Legend Double Dagger 6.8 4.5 85 5 3 64.4 97.77     LegendNANA
04:00 Legend Double Dagger 6.7 4.7 87 9 8 64.4 97.80     Mainly Clear
05:00 Legend Double Dagger 6.6 4.3 85 36 3 64.4 97.81     LegendNANA
06:00 Legend Double Dagger 6.5 4.8 89 10 5 64.4 97.83     LegendNANA
07:00 Legend Double Dagger 6.2 4.7 90 36 1 64.4 97.89     Mostly Cloudy
08:00 Legend Double Dagger 9.1 6.2 82 36 2 64.4 97.91     LegendNANA
09:00 Legend Double Dagger 10.6 6.8 77 20 7 64.4 97.95     LegendNANA
10:00 Legend Double Dagger 12.4 6.9 69 11 6 64.4 97.91     Mostly Cloudy
11:00 Legend Double Dagger 13.6 6.8 63 15 5 64.4 97.86     LegendNANA
12:00 Legend Double Dagger 15.4 7.3 58 17 4 72.4 97.77     LegendNANA
13:00 Legend Double Dagger 17.2 6.8 50 9 8 64.4 97.67     Mostly Cloudy
14:00 Legend Double Dagger 18.6 7.5 48 10 9 64.4 97.59     LegendNANA
15:00 Legend Double Dagger 19.4 7.6 46 8 5 64.4 97.53     LegendNANA
16:00 Legend Double Dagger 19.9 7.8 45 13 4 64.4 97.49     Mainly Clear
17:00 Legend Double Dagger 18.5 8.0 50 36 2 64.4 97.47     LegendNANA
18:00 Legend Double Dagger 15.3 8.6 64 8 11 64.4 97.50     LegendNANA
19:00 Legend Double Dagger 14.6 8.8 68 7 12 64.4 97.52     Mainly Clear
20:00 Legend Double Dagger 11.7 7.8 77 36 2 64.4 97.55     LegendNANA
21:00 Legend Double Dagger 11.4 7.5 77 36 1 64.4 97.57     LegendNANA
22:00 Legend Double Dagger 11.0 8.3 83 10 6 64.4 97.61     Clear
23:00 Legend Double Dagger 10.4 8.4 87 17 4 64.4 97.64     LegendNANA

Notes on Data Quality.

Legend

  • E = Estimated
  • M = Missing
  • NA = Not Available
  • ‡ = Partner data that is not subject to review by the National Climate Archives
Date modified: